Location: Haram ta Haram Freeway
(35.0583°N, 51.4202°E)
Time: 20:42:01
(UTC+04:30)

Hubble Space Telescope - Pass Details

Date: 29 July 2021
Orbit: 535 x 539 km, 28.5° (Epoch: 18 September)

Event Time Altitude Azimuth Distance (km) Brightness Sun altitude
Rises 21:05:11 0° 259° (W) 2,667 5.1 -10.9°
Reaches altitude 10° 21:07:38 10° 248° (WSW) 1,776 3.9 -11.3°
Maximum altitude 21:11:13 29° 187° (S) 979 1.9 -11.9°
Enters shadow 21:13:27 18° 139° (SE) 1,340 2.2 -12.3°
